Content
SEND FEEDBACK

Daily
Averages
Monthly
Summary
United States of America

TRAVERSE CITY, MICHIGAN


Home > North America > United States > Michigan
Elevation: 623 feet     Latitude: 44 44N     Longitude: 085 35W

WEATHER
 
SELECT A DAY
Number of Records: 19,829;   Date Range: 1/1/12 - 8/28/14
 
SHARE

PRINT THIS DATA

[ ← Previous Day ]
WEATHER ALMANAC - JANUARY 31, 2013
[ Next Day → ]
[ °C ]   °F
Weather ElementAverageHighLow
Temperature19.2 °F24.8 °F (12:14 am)15.8 °F (7:19 pm)
Dewpoint13.1 °F19.4 °F (12:14 am)8.1 °F (8:53 pm)
Humidity77.6 %89 % (1:53 am)68 % (9:53 am)
Barometer29.53 in29.88 in (11:53 pm)29.26 in (12:14 am)
Wind Speed15.8 mph21.9 mph (4:00 am)
Wind Gust28.8 mph (4:35 am)
Weather ElementAverage
Visibility2.8 mi
Wind DirectionWNW (288.7 °)

Weather ElementTotal
Precipitation0.06 in
Heating Degree Days44.7 (Base 65)
Averaged from 54 records on January 31, 2013
WEATHER CONDITIONS BREAKOUT
WIND DIRECTION BREAKOUT
WEATHER BY HOUR - JANUARY 31, 2013
[ °C ]   °F
Local TimeTemperatureDewpointHumidityBarometerVisibilityWind DirectionWind SpeedGust SpeedPrecipitationEventsConditions
12:14 AM24.8 °F19.4 °F80 %29.26 in1.5 miNW (310°)8.1 mph0.00 inSnowLight Snow
12:35 AM23.0 °F17.6 °F80 %29.27 in3.0 miWNW (300°)15.0 mph23.0 mph0.01 inSnowLight Snow
12:46 AM23.0 °F17.6 °F80 %29.28 in7.0 miNW (310°)15.0 mph0.01 inOvercast
12:53 AM23.0 °F17.1 °F78 %29.31 in8.0 miNW (310°)15.0 mph0.01 inOvercast
1:11 AM23.0 °F17.6 °F80 %29.30 in2.5 miWNW (290°)16.1 mph0.00 inSnowLight Snow
1:23 AM21.2 °F17.6 °F86 %29.30 in1.2 miWNW (290°)18.4 mph23.0 mph0.00 inSnowLight Snow
1:43 AM21.2 °F17.6 °F86 %29.30 in0.8 miWNW (300°)13.8 mph0.00 inSnowLight Snow
1:53 AM21.9 °F19.0 °F89 %29.34 in0.5 miWNW (300°)11.5 mph0.00 inFog-SnowSnow
2:09 AM21.2 °F17.6 °F86 %29.32 in0.2 miNW (310°)13.8 mph24.2 mph0.00 inFog-SnowHeavy Snow
2:27 AM21.2 °F17.6 °F86 %29.33 in0.5 miWNW (290°)13.8 mph0.01 inFog-SnowSnow
2:45 AM21.2 °F17.6 °F86 %29.34 in0.5 miWNW (300°)19.6 mph24.2 mph0.01 inFog-SnowSnow
2:53 AM21.0 °F17.1 °F85 %29.37 in0.2 miNW (310°)13.8 mph24.2 mph0.01 inFogLight Freezing Fog
3:05 AM21.2 °F17.6 °F86 %29.35 in0.5 miWNW (300°)16.1 mph26.5 mph0.00 inFog-SnowSnow
3:19 AM19.4 °F15.8 °F86 %29.36 in0.8 miWNW (290°)17.3 mph24.2 mph0.00 inSnowLight Snow
3:37 AM19.4 °F15.8 °F86 %29.36 in1.0 miWNW (290°)17.3 mph25.3 mph0.00 inSnowLight Snow
3:53 AM19.0 °F14.0 °F81 %29.39 in1.2 miWest (280°)20.7 mph27.6 mph0.00 inSnowLight Snow
4:00 AM19.4 °F14.0 °F80 %29.37 in1.5 miWest (280°)21.9 mph27.6 mph0.00 inSnowLight Snow
4:35 AM19.4 °F12.2 °F74 %29.38 in2.5 miWest (280°)19.6 mph28.8 mph0.00 inOvercast
4:38 AM19.4 °F12.2 °F74 %29.39 in3.0 miWest (280°)19.6 mph28.8 mph0.00 inOvercast
4:53 AM19.0 °F12.9 °F77 %29.42 in3.0 miWNW (290°)19.6 mph27.6 mph0.00 inOvercast
5:01 AM19.4 °F12.2 °F74 %29.40 in2.5 miWest (280°)19.6 mph27.6 mph0.00 inSnowLight Snow
5:17 AM19.4 °F12.2 °F74 %29.41 in3.0 miWest (280°)17.3 mph28.8 mph0.00 inSnowLight Snow
5:29 AM19.4 °F12.2 °F74 %29.41 in2.0 miWest (280°)20.7 mph25.3 mph0.00 inSnowLight Snow
5:38 AM19.4 °F12.2 °F74 %29.42 in1.8 miWNW (290°)19.6 mph0.00 inSnowLight Snow
5:53 AM19.0 °F12.9 °F77 %29.45 in2.5 miWNW (290°)18.4 mph0.00 inSnowLight Snow
6:27 AM17.6 °F12.2 °F79 %29.44 in1.5 miWest (280°)19.6 mph26.5 mph0.00 inSnowLight Snow
6:51 AM17.6 °F12.2 °F79 %29.45 in2.0 miWest (280°)17.3 mph26.5 mph0.00 inSnowLight Snow
6:53 AM18.0 °F12.9 °F81 %29.48 in2.0 miWest (280°)18.4 mph26.5 mph0.00 inSnowLight Snow
7:12 AM17.6 °F12.2 °F79 %29.47 in3.0 miWest (280°)17.3 mph0.00 inSnowLight Snow
7:53 AM18.0 °F10.9 °F74 %29.51 in7.0 miWest (280°)17.3 mph0.00 inSnowLight Snow
8:53 AM18.0 °F10.0 °F71 %29.55 in7.0 miWest (280°)17.3 mph0.00 inSnowLight Snow
9:53 AM18.0 °F9.0 °F68 %29.58 in7.0 miWest (280°)17.3 mph25.3 mph0.00 inSnowLight Snow
10:53 AM18.0 °F10.9 °F74 %29.62 in3.0 miWest (280°)16.1 mph0.00 inSnowLight Snow
11:53 AM19.0 °F10.9 °F71 %29.65 in3.0 miWest (280°)16.1 mph25.3 mph0.00 inSnowLight Snow
12:36 PM19.4 °F12.2 °F74 %29.62 in1.5 miWest (270°)15.0 mph0.00 inSnowLight Snow
12:59 PM19.4 °F12.2 °F74 %29.62 in3.0 miWest (280°)17.3 mph26.5 mph0.00 inSnowLight Snow
1:53 PM19.0 °F12.0 °F74 %29.67 in3.0 miWest (280°)16.1 mph0.00 inSnowLight Snow
2:53 PM19.0 °F10.0 °F68 %29.69 in7.0 miWest (280°)18.4 mph0.00 inSnowLight Snow
3:53 PM18.0 °F12.0 °F78 %29.72 in3.0 miWest (280°)13.8 mph23.0 mph0.00 inSnowLight Snow
4:11 PM17.6 °F12.2 °F79 %29.70 in2.5 miWest (270°)15.0 mph21.9 mph0.00 inSnowLight Snow
4:27 PM17.6 °F10.4 °F73 %29.70 in4.0 miWest (280°)13.8 mph0.00 inSnowLight Snow
4:53 PM18.0 °F10.9 °F74 %29.75 in4.0 miWest (280°)11.5 mph0.00 inSnowLight Snow
5:39 PM17.6 °F10.4 °F73 %29.73 in2.0 miWest (280°)11.5 mph0.00 inSnowLight Snow
5:45 PM17.6 °F10.4 °F73 %29.74 in1.2 miWest (280°)11.5 mph0.00 inSnowLight Snow
5:53 PM17.1 °F12.0 °F81 %29.77 in2.0 miWNW (290°)10.4 mph0.00 inSnowLight Snow
6:24 PM17.6 °F10.4 °F73 %29.75 in1.5 miWNW (300°)13.8 mph0.00 inSnowLight Snow
6:38 PM17.6 °F12.2 °F79 %29.76 in0.8 miWNW (300°)12.7 mph0.00 inSnowLight Snow
6:42 PM17.6 °F12.2 °F79 %29.76 in0.5 miWNW (290°)15.0 mph0.00 inSnowSnow
6:53 PM17.1 °F12.0 °F81 %29.80 in0.8 miWNW (290°)13.8 mph0.00 inSnowLight Snow
7:19 PM15.8 °F10.4 °F79 %29.77 in3.0 miWest (280°)12.7 mph0.00 inSnowLight Snow
7:53 PM17.1 °F10.0 °F74 %29.82 in3.0 miWNW (290°)15.0 mph0.00 inSnowLight Snow
8:53 PM17.1 °F8.1 °F68 %29.83 in3.0 miNW (310°)13.8 mph0.00 inSnowLight Snow
10:53 PM17.1 °F8.1 °F68 %29.87 in10.0 miWNW (300°)11.5 mphOvercast
11:53 PM17.1 °F9.0 °F71 %29.88 in6.0 miNW (310°)11.5 mph0.00 inSnowLight Snow
Hourly data recorded from KTVC, located miles away from Traverse City, Michigan







STORIES FROM OUR PARTNERS